User: anonymous   Login
Location: Bonneuil
(46.1010°N, 2.9693°E)
Time: 01:33:30
(UTC+00:00)
Language:

STARLINK-1241 - Orbit

View from above orbital plane
View from above orbital plane
View from above satellite
View from above satellite

Ground track
Ground track

The orbit data is extracted from the following two-line orbital elements,

1 45195U 20012T   20192.91667824  .00007988  00000-0  56651-3 0  9994
2 45195  53.0005 329.2064 0001398 102.1454  11.5521 15.05596811 22250
Epoch (UTC): 10 July 2020 22:00:01
Eccentricity: 0.0001398
inclination: 53.0005°
perigee height: 549 km
apogee height: 550 km
right ascension of ascending node: 329.2064°
argument of perigee: 102.1454°
revolutions per day: 15.05596811
mean anomaly at epoch: 11.5521°
orbit number at epoch: 2225

The dashed part of the orbit path shows where the satellite is in the earth's shadow,  

DLR